Location: Cartignies
(50.0929°N, 3.8447°E)
Time: 14:30:11
(UTC+00:00)

Cosmos 2341 Rocket - Pass Details

Date: 12 January 2026
Orbit: 967 x 1004 km, 82.9° (Epoch: 15 February)

Event Time Altitude Azimuth Distance (km) Brightness Sun altitude
Rises 17:53:43 0° 349° (NNW) 3,731 7.0 -16.5°
Reaches altitude 10° 17:56:16 10° 348° (NNW) 2,773 6.4 -16.9°
Maximum altitude 18:02:36 75° 265° (W) 1,028 4.2 -17.9°
Drops below altitude 10° 18:08:51 10° 181° (S) 2,729 6.5 -18.8°
Sets 18:11:21 0° 179° (S) 3,667 7.1 -19.2°
